Regional Weather Roundup
Issued by NWS Boston, MA

Current Version | Previous Version | Text Only | Print | Product List | Glossary Off
Versions: 1 2 3 4 5 6 7 8 9 10 11 12 13 14 15 16 17 18 19 20 21 22 23 24 25 26 27 28 29 30 31 32 33 34 35 36 37 38 39 40 41 42 43 44 45 46 47 48 49 50
000 ASUS41 KBOX 190910 RWRBOX REGIONAL WEATHER ROUNDUP NATIONAL WEATHER SERVICE BOSTON/NORTON MA 500 AM EDT FRI OCT 19 2018 NOTE: "FAIR" INDICATES FEW OR NO CLOUDS BELOW 12,000 FEET WITH NO SIGNIFICANT WEATHER AND/OR OBSTRUCTIONS TO VISIBILITY. MAZALL-191000- EASTERN MASSACHUSETTS CITY SKY/WX TMP DP RH WIND PRES REMARKS BOSTON FAIR 39 28 64 SW9 30.25S BEVERLY FAIR 32 23 69 SW5 30.24R WCI 27 LAWRENCE FAIR 35 25 66 S5 30.25F WCI 31 BEDFORD FAIR 31 25 78 SW7 30.24S WCI 24 BLUE HILL N/A 32 25 75 W10 30.23R WCI 24 NORWOOD FAIR 29 25 85 CALM 30.26S MARSHFIELD FAIR 32 27 80 W5 30.27R WCI 27 PLYMOUTH FAIR 34 26 72 W5 30.27R WCI 30 TAUNTON FAIR 28 25 88 CALM 30.28R NEW BEDFORD FAIR 31 29 92 CALM 30.27R $$ MAZALL-191000- CAPE COD AND THE ISLANDS CITY SKY/WX TMP DP RH WIND PRES REMARKS FALMOUTH FAIR 34 27 75 W6 30.28R WCI 29 HYANNIS FAIR 37 27 67 W6 30.26R CHATHAM FAIR 32 27 81 CALM 30.27R PROVINCETOWN FAIR 42 32 67 W13 30.25S NANTUCKET FAIR 42 28 57 NW10 30.27R MARTHAS VNYRD FAIR 38 29 70 W5 30.28R $$ MAZALL-191000- CENTRAL AND WESTERN MASSACHUSETTS CITY SKY/WX TMP DP RH WIND PRES REMARKS WORCESTER FAIR 32 24 72 W13 30.21F WCI 22 FITCHBURG FAIR 29 26 89 E3 30.24S ORANGE FAIR 27 23 85 CALM 30.24F SPRINGFIELD FAIR 30 25 81 CALM 30.25F WESTFIELD FAIR 30 26 85 S3 30.26S NORTH ADAMS CLOUDY 39 31 72 W8 30.22F PITTSFIELD FAIR 32 25 75 SW6 30.21S WCI 26 $$ RIZALL-191000- RHODE ISLAND CITY SKY/WX TMP DP RH WIND PRES REMARKS PROVIDENCE FAIR 32 26 78 SW3 30.29S NEWPORT FAIR 39 29 67 W5 30.28R SMITHFIELD FAIR 27 25 92 CALM 30.26S WESTERLY FAIR 35 27 72 CALM 30.30R $$ CTZALL-191000- CONNECTICUT CITY SKY/WX TMP DP RH WIND PRES REMARKS BRADLEY INTL FAIR 35 26 69 SW9 30.27S WCI 28 HARTFORD FAIR 32 28 85 S3 30.29S BRIDGEPORT FAIR 40 30 67 W8 30.29F DANBURY FAIR 35 29 78 W7 30.29S WCI 29 GROTON FAIR 30 28 92 N5 30.29S WCI 25 NEW HAVEN FAIR 41 30 65 VRB5 30.30S CHESTER FAIR 32 27 80 CALM 30.28S MERIDEN FAIR 28 26 92 CALM 30.30S WILLIMANTIC FAIR 30 28 92 CALM 30.29R OXFORD FAIR 31 28 89 CALM 30.27S $$ MEZ002-015-021-024-NHZ003-005-008-011-012-014-VTZ005-008-191000- NORTHERN NEW ENGLAND CITY SKY/WX TMP DP RH WIND PRES REMARKS PORTLAND ME MOCLDY 37 22 54 SW7 30.19F WCI 32 BANGOR ME CLOUDY 34 22 61 S3 30.15F CONCORD NH CLOUDY 26 23 88 CALM 30.19F MANCHESTER NH MOCLDY 30 25 81 S3 30.20F NASHUA NH FAIR 26 25 96 VRB3 30.23F PORTSMOUTH NH MOCLDY 29 23 78 CALM 30.20F JAFFREY NH FAIR 34 27 75 SW5 30.20F WCI 30 KEENE NH FAIR 25 24 96 CALM 30.22F BURLINGTON VT CLOUDY 40 28 62 S13 30.13F MT. WASHINGTON BLWGSNOW 14 14 100 W66 N/A VSB 0 WCI -14 $$ NYZ052-076-191000- EASTERN NEW YORK CITY SKY/WX TMP DP RH WIND PRES REMARKS ALBANY FAIR 32 26 78 S5 30.25F WCI 27 NEW YORK CITY FAIR 47 27 45 SW7 30.30F $$ ANZALL-191000- MARINE OBSERVATIONS STATION/POSITION TIME TEMP WIND PRES VSBY WAVE AIR SEA DIR/SP/G HT/PER (UTC) (F) (DEG/KT/KT) (MB) (MI) (FT/S) BOSTON BUOY 0850 44 57 280/ 14/ 17 1023.8R 2/ 3 BUZZARDS BAY 0800 44 300/ 15/ 18 1025.8R NANTUCKET SOUND 0850 44 60 310/ 16/ 21 1025.1R 2/ 3 MASS BAY-STELLWA 0804 42 55 300/ 16/ 17 1023.2F 1 7/8 2/ 3 ISLE OF SHOALS 0800 40 260/ 16/ 18 1023.0F S OF BLOCK IS 0843 63 N/A 5/ 5 $$ ......................KEY......................... SKY/WX - SKY CONDITION/PRESENT WEATHER TMP - TEMPERATURE IN FAHRENHEIT DWPT - DEWPOINT IN FAHRENHEIT RH - RELATIVE HUMIDITY IN PERCENT WIND - DIRECTION AND SPEED IN MPH PRES - MEAN SEA LEVEL PRESSURE IN INCHES OF HG WCI - WIND CHILL INDEX VSB - VISIBILITY IN MILES HX - HEAT INDEX TC - TEMPERATURE IN CELSIUS VRB - VARIABLE WIND DIRECTION N/A - NOT AVAILABLE

USA.gov is the U.S. government's official web portal to all federal, state and local government web resources and services.